CZ-8A R/B, 67444

Orbit data source: Space-Track

CZ-8A R/B, 67444 is space debris in LEO originally from a launch on Tue, 13 Jan 2026 UTC launched from the Wenchang Satellite Launch Center (WSC). Debris objects in space refer to the collection of defunct objects orbiting the Earth. Examples of debris include non-operational satellites, rocket bodies, and fragments generated from explosions, collisions, or faulty payload assembly.

Loading next visibility...
Identifier
67444, 2026-007K
Orbit
LEO
Country
Flag of CNCN / PRC
Related business
Manufacturer
CALT
Mission
Spacecraft
Bus & Motor
CZ-8A STAGE 2, Unknown motor
Mass
~2,800 kg wet, ~2,800 kg dry
Launch date (UTC)
2026-01-13 (5 months ago)
Launch vehicle
Unknown
Launch site
Wenchang Satellite Launch Center (WSC)
Object type
Payload
Rocket body
Debris
Shape & HBR
Cyl, 4.5 m
Radar Cross Section
36.967 m², Large (>1 m²)

Expand to show TLE details & history
Last TLE update: 9 hours ago

TLE from 9 hours ago
0 CZ-8A R/B
1 67444U 26007K   26171.48028990  .00000024  00000-0  90127-4 0  9996
2 67444  50.0124   1.1591 0091866 264.0875  94.9556 14.13580202 22321
Epoch: 2026-06-20T11:31Z
TLE epoch observation values (Epoch: 2026-06-20T11:31:37.047Z)
Latitude
-0.00008°
Longitude
-80.43964°
Altitude
854.012 km
Speed
7.424 km/s
True Right ascension
00h 04m 38s
True Declination
0° 00' 00"
Sunlit
Object was in daylight at epoch
Visualization orbit readout
Latitude
Unknown
Longitude
Unknown
Altitude
Unknown
Speed
Unknown
Apparent Right ascension
Unknown
Apparent Declination
Unknown
Sunlit
N/A
Visualization observer readout
Local Sidereal Time
07:23:44
Azimuth
Unknown
Elevation
Unknown
Doppler factor
Unknown
Orbital elements
Apogee altitude
914.261 km
Perigee altitude
781.496 km
Semi-major axis
7,226.016 km
Eccentricity
0.00919
Inclination
50.0124°
RAAN
1.1591°
Arg. of periapsis
264.0875°
True anomaly
96.00327°
Mean anomaly
94.9556°
Eccentric anomaly
95.47955°
Mean motion
3.53342 °/min
Orbital period
101.88 mins
BSTAR
0.000090127
Loading maneuver chart data...
Computing Atmospheric mass density...
Loading historical data...
Loading historical data...
Loading historical data...
Loading historical data...
Loading historical data...
Loading historical data...
Loading historical data...

Documentation

Showing up to 5 results
|